Weather Roundup
Issued by NWS Springfield, MO

Home | Current Version | Previous Version | Text Only | Print | Product List | Glossary On
Versions: 1 2 3 4 5 6 7 8 9 10 11 12 13 14 15 16 17 18 19 20 21 22 23 24 25 26 27 28 29 30 31 32 33 34 35 36 37 38 39 40 41 42 43 44 45 46 47 48 49 50
000
NZUS99 KSGF 291357
HRRSGF

HOURLY WEATHER
NATIONAL WEATHER SERVICE SPRINGFIELD MO
900 AM CDT WED MAR 29 2017

......SGF CWA......

CITY           SKY/WX    TMP DP  RH WIND       PRES   REMARKS
SPRINGFIELD    PTSUNNY   57  52  83 SE23G38   29.81F
JOPLIN         RAIN      57  55  93 SE18G25   29.75R FOG
WEST PLAINS    CLOUDY    56  52  86 E13       29.93F
ROLLA          CLOUDY    52  50  93 SE9       29.96R
BRANSON        CLOUDY    55  54  94 SE12G21   29.85S

......SURROUNDING SGF CWA......

CITY           SKY/WX    TMP DP  RH WIND       PRES   REMARKS
CHANUTE        CLOUDY    56  53  90 E22G32    29.61F
PARSONS        LGT RAIN  59  55  87 SE15G23   29.65F
COFFEYVILLE    CLOUDY    61  58  90 SE21G29   29.62F
EMPORIA        HVY RAIN  50  50 100 NE16G26   29.68F FOG
HARRISON AR    CLOUDY    55  53  93 SE15G25   29.85S

......KANSAS AND MISSOURI......

CITY           SKY/WX    TMP DP  RH WIND       PRES   REMARKS
KANSAS CTY INT DRIZZLE   49  47  93 E21G31    29.85F FOG
SEDALIA        CLOUDY    52  51  97 E16G28    29.90F
ST JOSEPH      CLOUDY    49  47  93 E20G30    29.87F
ST LOUIS       CLOUDY    51  44  77 E13       30.04R
WICHITA        CLOUDY    53  52  96 NE16      29.60F
TOPEKA         LGT RAIN  50  49  96 E21G28    29.79F
OLATHE         LGT RAIN  48  48 100 E20G28    29.80F FOG

......TENNESSEE......

CITY           SKY/WX    TMP DP  RH WIND       PRES   REMARKS
MEMPHIS        NOT AVBL
NASHVILLE      MOSUNNY   60  55  83 E9        30.05F

......ARKANSAS.......

CITY           SKY/WX    TMP DP  RH WIND       PRES   REMARKS
FAYETTEVILLE   CLOUDY    60  58  92 S12       29.79R FOG
FT SMITH       CLOUDY    60  57  89 E12       29.76F
LITTLE ROCK    CLOUDY    65  62  90 S7        29.89F

......OKLAHOMA.......

CITY           SKY/WX    TMP DP  RH WIND       PRES   REMARKS
TULSA          CLOUDY    61  58  90 SE9       29.60F
PONCA CITY     CLOUDY    59  55  87 SW8       29.60R
MCALESTER      CLOUDY    63  56  78 S8        29.66F
OKLAHOMA CITY  FOG       52  52 100 SW5       29.64S VSB 1/2

......IOWA............

CITY           SKY/WX    TMP DP  RH WIND       PRES   REMARKS
DES MOINES     NOT AVBL
QUAD CITIES    CLOUDY    43  39  86 E12       30.20R FOG

......ILLINOIS........

CITY           SKY/WX    TMP DP  RH WIND       PRES   REMARKS
QUINCY         TSTM      44  42  93 N9        30.13R FOG
CHICAGO        CLOUDY    40  35  83 NE10      30.23F WCI  33




USA.gov is the U.S. government's official web portal to all federal, state and local government web resources and services.